TCUDS LTBR-ZZZZ

Flight info

Callsign TCUDS
Flight time N/A
Altitude 7500
Route DCT BRY DCT 401310N0291951E DCT 401400N0290047E DCT 401310N0291951E DCT 400916N0294225E DCT SULTA DCT 394653N0295733E DCT 393803N0301048E DCT 391657N0303138E DCT 391219N0312633E DCT
Aircraft A210/L-VGD/A

Departure

Time 2026-04-29 09:50
Airport Bursa Yenişehir Airport (LTBR)

Arrival

Time N/A
Airport ZZZZ
Time Latitude Longitude Altitude Speed Heading
2026-04-29 09:38 40.25625 29.54695 762 ft 0 kts 254°
2026-04-29 09:45 40.25614 29.54672 762 ft 3 kts 196°
2026-04-29 09:45 40.25586 29.54675 762 ft 5 kts 183°
2026-04-29 09:46 40.25564 29.54639 762 ft 7 kts 253°
2026-04-29 09:46 40.25548 29.54564 762 ft 9 kts 256°
2026-04-29 09:46 40.25533 29.54491 762 ft 8 kts 252°
2026-04-29 09:46 40.25495 29.54455 762 ft 7 kts 166°
2026-04-29 09:47 40.25448 29.54474 762 ft 8 kts 165°
2026-04-29 09:47 40.25399 29.54493 762 ft 7 kts 163°
2026-04-29 09:47 40.25325 29.54519 763 ft 12 kts 164°
2026-04-29 09:47 40.25258 29.54545 763 ft 8 kts 163°
2026-04-29 09:48 40.25234 29.54611 762 ft 13 kts 82°
2026-04-29 09:48 40.25256 29.54721 758 ft 0 kts 75°
2026-04-29 09:48 40.25260 29.54735 759 ft 12 kts 73°
2026-04-29 09:49 40.25326 29.55046 762 ft 57 kts 73°
2026-04-29 09:49 40.25469 29.55669 829 ft 79 kts 73°
2026-04-29 09:49 40.25621 29.56419 963 ft 86 kts 76°
2026-04-29 09:49 40.25777 29.57157 1122 ft 86 kts 72°
2026-04-29 09:50 40.25952 29.57965 1177 ft 99 kts 74°
2026-04-29 09:50 40.26125 29.58831 1410 ft 97 kts 73°
2026-04-29 09:50 40.26304 29.59701 1558 ft 104 kts 74°
2026-04-29 09:50 40.26484 29.60638 1702 ft 107 kts 77°
2026-04-29 09:51 40.26421 29.61604 1871 ft 110 kts 111°
2026-04-29 09:51 40.25974 29.62390 2089 ft 113 kts 144°
2026-04-29 09:51 40.25247 29.62730 2293 ft 110 kts 175°
2026-04-29 09:51 40.24490 29.62709 2404 ft 106 kts 197°
2026-04-29 09:52 40.23975 29.62095 2572 ft 100 kts 258°
2026-04-29 09:52 40.23927 29.61172 2623 ft 103 kts 272°
2026-04-29 09:52 40.23862 29.60253 2782 ft 102 kts 267°
2026-04-29 09:52 40.23693 29.59375 2912 ft 102 kts 259°
2026-04-29 09:53 40.23554 29.58500 3152 ft 98 kts 266°
2026-04-29 09:53 40.23499 29.57565 3298 ft 103 kts 270°
2026-04-29 09:53 40.23438 29.56632 3395 ft 103 kts 265°
2026-04-29 09:53 40.23329 29.55687 3545 ft 105 kts 263°
2026-04-29 09:54 40.23226 29.54729 3679 ft 107 kts 264°
2026-04-29 09:54 40.23119 29.53779 3838 ft 103 kts 264°
2026-04-29 09:54 40.23029 29.52828 3911 ft 105 kts 264°
2026-04-29 09:54 40.22974 29.51871 4023 ft 106 kts 272°
2026-04-29 09:55 40.22962 29.50907 4075 ft 109 kts 271°
2026-04-29 09:55 40.22900 29.49921 4104 ft 109 kts 267°
2026-04-29 09:55 40.22843 29.48918 4166 ft 110 kts 269°
2026-04-29 09:55 40.22804 29.47939 4231 ft 106 kts 270°
2026-04-29 09:56 40.22775 29.46962 4328 ft 106 kts 271°
2026-04-29 09:56 40.22742 29.45996 4475 ft 107 kts 269°
2026-04-29 09:56 40.22701 29.44975 4421 ft 117 kts 269°
2026-04-29 09:56 40.22642 29.43931 4499 ft 115 kts 268°
2026-04-29 09:57 40.22564 29.42884 4501 ft 119 kts 267°
2026-04-29 09:57 40.22478 29.41827 4615 ft 114 kts 267°
2026-04-29 09:57 40.22367 29.40758 4530 ft 122 kts 264°
2026-04-29 09:57 40.22240 29.39658 4522 ft 121 kts 264°
2026-04-29 09:58 40.22136 29.38575 4547 ft 119 kts 269°
2026-04-29 09:58 40.22079 29.37453 4479 ft 126 kts 269°
2026-04-29 09:58 40.22004 29.36337 4406 ft 119 kts 264°
2026-04-29 09:58 40.21927 29.35321 4378 ft 110 kts 268°
2026-04-29 09:59 40.21876 29.34346 4464 ft 102 kts 270°
2026-04-29 09:59 40.21852 29.33414 4474 ft 104 kts 270°
2026-04-29 09:59 40.21823 29.32465 4479 ft 104 kts 271°
2026-04-29 09:59 40.21811 29.31520 4475 ft 108 kts 274°
2026-04-29 10:00 40.21827 29.30510 4575 ft 111 kts 275°
2026-04-29 10:00 40.21856 29.29444 4439 ft 123 kts 275°
2026-04-29 10:00 40.21898 29.28309 4283 ft 124 kts 277°
2026-04-29 10:00 40.21987 29.27205 4203 ft 121 kts 281°
2026-04-29 10:01 40.22106 29.26094 4104 ft 122 kts 280°
2026-04-29 10:01 40.22201 29.25017 4017 ft 118 kts 279°
2026-04-29 10:01 40.22300 29.23957 3876 ft 118 kts 281°
2026-04-29 10:01 40.22416 29.22824 3455 ft 128 kts 279°
2026-04-29 10:02 40.22519 29.21700 3166 ft 120 kts 280°
2026-04-29 10:02 40.22667 29.20630 3077 ft 115 kts 285°
2026-04-29 10:02 40.22839 29.19651 3003 ft 106 kts 286°
2026-04-29 10:02 40.22961 29.18698 2814 ft 107 kts 281°
2026-04-29 10:03 40.23028 29.17745 2601 ft 107 kts 276°
2026-04-29 10:03 40.23059 29.16781 2589 ft 104 kts 274°
2026-04-29 10:03 40.23085 29.15841 2460 ft 106 kts 276°
2026-04-29 10:03 40.23164 29.14893 2419 ft 105 kts 282°
2026-04-29 10:04 40.23260 29.13940 2378 ft 106 kts 282°
2026-04-29 10:04 40.23291 29.12965 2229 ft 109 kts 275°
2026-04-29 10:04 40.23305 29.11959 2083 ft 109 kts 274°
2026-04-29 10:04 40.23314 29.10983 2000 ft 105 kts 273°
2026-04-29 10:05 40.23341 29.10027 1879 ft 104 kts 276°
2026-04-29 10:05 40.23369 29.09092 1681 ft 105 kts 272°
2026-04-29 10:05 40.23336 29.08123 1498 ft 108 kts 271°
2026-04-29 10:05 40.23326 29.07160 1415 ft 101 kts 272°
2026-04-29 10:06 40.23325 29.06228 1330 ft 103 kts 274°
2026-04-29 10:06 40.23340 29.05285 1274 ft 104 kts 274°
2026-04-29 10:06 40.23374 29.04346 1088 ft 101 kts 275°
2026-04-29 10:06 40.23355 29.03442 925 ft 99 kts 268°
2026-04-29 10:07 40.23325 29.02559 687 ft 93 kts 274°
2026-04-29 10:07 40.23332 29.01739 482 ft 83 kts 272°
2026-04-29 10:07 40.23328 29.01066 365 ft 64 kts 276°
2026-04-29 10:07 40.23311 29.00481 394 ft 74 kts 273°
2026-04-29 10:08 40.23294 28.99787 549 ft 80 kts 275°
2026-04-29 10:08 40.23304 28.99019 692 ft 88 kts 274°
2026-04-29 10:08 40.23300 28.98222 865 ft 88 kts 272°
2026-04-29 10:08 40.23519 28.97500 1056 ft 92 kts 326°
2026-04-29 10:09 40.24049 28.97583 1242 ft 101 kts 85°
2026-04-29 10:09 40.23896 28.98507 1341 ft 110 kts 104°
2026-04-29 10:09 40.23726 28.99490 1514 ft 110 kts 99°
2026-04-29 10:09 40.23581 29.00471 1730 ft 108 kts 104°
2026-04-29 10:10 40.23384 29.01387 1940 ft 112 kts 102°
2026-04-29 10:10 40.23189 29.02451 1977 ft 118 kts 98°
2026-04-29 10:10 40.23132 29.03511 2130 ft 121 kts 92°
2026-04-29 10:10 40.23088 29.04557 2332 ft 107 kts 92°
2026-04-29 10:11 40.23051 29.05512 2551 ft 108 kts 90°
2026-04-29 10:11 40.23007 29.06501 2788 ft 111 kts 92°
2026-04-29 10:11 40.22966 29.07470 2995 ft 103 kts 92°
2026-04-29 10:11 40.22932 29.08413 3223 ft 104 kts 90°
2026-04-29 10:12 40.22891 29.09327 3427 ft 98 kts 91°
2026-04-29 10:12 40.22847 29.10187 3610 ft 97 kts 91°
2026-04-29 10:12 40.22815 29.11080 3742 ft 102 kts 92°
2026-04-29 10:12 40.22772 29.12038 3876 ft 107 kts 94°
2026-04-29 10:13 40.22732 29.13011 4016 ft 108 kts 91°
2026-04-29 10:13 40.22687 29.13985 4157 ft 109 kts 92°
2026-04-29 10:13 40.22643 29.14999 4277 ft 112 kts 91°
2026-04-29 10:13 40.22605 29.16025 4426 ft 114 kts 91°
2026-04-29 10:14 40.22568 29.17047 4543 ft 112 kts 92°
2026-04-29 10:14 40.22519 29.18086 4670 ft 114 kts 91°
2026-04-29 10:14 40.22482 29.19105 4784 ft 110 kts 91°
2026-04-29 10:14 40.22457 29.20075 4913 ft 108 kts 91°
2026-04-29 10:15 40.22429 29.21067 5036 ft 108 kts 90°
2026-04-29 10:15 40.22405 29.22052 5156 ft 108 kts 91°
2026-04-29 10:15 40.22381 29.23019 5270 ft 106 kts 91°
2026-04-29 10:15 40.22357 29.23983 5391 ft 105 kts 90°
2026-04-29 10:16 40.22331 29.24937 5522 ft 105 kts 90°
2026-04-29 10:16 40.22314 29.25578 5609 ft 107 kts 90°
2026-04-29 10:16 40.22279 29.26887 5774 ft 107 kts 91°
2026-04-29 10:16 40.22252 29.27867 5906 ft 109 kts 90°
2026-04-29 10:17 40.22225 29.28850 6028 ft 107 kts 90°
2026-04-29 10:17 40.22198 29.29832 6155 ft 109 kts 90°
2026-04-29 10:17 40.22178 29.30481 6249 ft 107 kts 91°
2026-04-29 10:17 40.22143 29.31501 6387 ft 113 kts 91°
2026-04-29 10:18 40.22110 29.32526 6507 ft 112 kts 90°
2026-04-29 10:18 40.22080 29.33519 6624 ft 107 kts 90°
2026-04-29 10:18 40.22050 29.34480 6744 ft 108 kts 91°
2026-04-29 10:18 40.21951 29.35491 6811 ft 112 kts 103°
2026-04-29 10:19 40.21758 29.36471 6882 ft 112 kts 103°
2026-04-29 10:19 40.21566 29.37466 6966 ft 112 kts 103°
2026-04-29 10:19 40.21369 29.38466 7036 ft 115 kts 103°
2026-04-29 10:19 40.21169 29.39500 7121 ft 118 kts 103°
2026-04-29 10:20 40.20967 29.40533 7192 ft 117 kts 102°
2026-04-29 10:20 40.20769 29.41541 7260 ft 114 kts 102°
2026-04-29 10:20 40.20570 29.42548 7339 ft 115 kts 104°
2026-04-29 10:20 40.20372 29.43568 7415 ft 116 kts 102°
2026-04-29 10:21 40.20169 29.44584 7493 ft 116 kts 103°
2026-04-29 10:21 40.19960 29.45630 7501 ft 122 kts 103°
2026-04-29 10:21 40.19740 29.46711 7501 ft 122 kts 103°
2026-04-29 10:21 40.19526 29.47768 7496 ft 119 kts 103°
2026-04-29 10:22 40.19319 29.48819 7497 ft 117 kts 102°
2026-04-29 10:22 40.19121 29.49824 7492 ft 113 kts 103°
2026-04-29 10:22 40.18923 29.50832 7494 ft 115 kts 103°
2026-04-29 10:22 40.18725 29.51843 7491 ft 116 kts 103°
2026-04-29 10:23 40.18529 29.52853 7531 ft 113 kts 103°
2026-04-29 10:23 40.18314 29.53844 7518 ft 114 kts 104°
2026-04-29 10:23 40.18098 29.54827 7500 ft 115 kts 104°
2026-04-29 10:23 40.17886 29.55837 7497 ft 116 kts 103°
2026-04-29 10:24 40.17668 29.56868 7518 ft 117 kts 103°
2026-04-29 10:24 40.17479 29.57882 7554 ft 117 kts 101°
2026-04-29 10:24 40.17307 29.58933 7525 ft 122 kts 101°
2026-04-29 10:24 40.17118 29.60007 7533 ft 122 kts 104°
2026-04-29 10:25 40.16871 29.61073 7517 ft 122 kts 107°
2026-04-29 10:25 40.16635 29.62133 7471 ft 126 kts 104°
2026-04-29 10:25 40.16405 29.63237 7486 ft 122 kts 104°
2026-04-29 10:25 40.16171 29.64306 7472 ft 123 kts 105°
2026-04-29 10:26 40.15987 29.65371 7489 ft 120 kts 99°
2026-04-29 10:26 40.15876 29.66461 7514 ft 118 kts 92°
2026-04-29 10:26 40.15793 29.67528 7505 ft 121 kts 93°
2026-04-29 10:26 40.15738 29.68625 7531 ft 120 kts 92°
2026-04-29 10:27 40.15526 29.70801 7586 ft 122 kts 96°
2026-04-29 10:27 40.15293 29.71896 7593 ft 128 kts 127°
2026-04-29 10:27 40.14540 29.72483 7528 ft 132 kts 179°
2026-04-29 10:28 40.13668 29.72630 7650 ft 121 kts 174°
2026-04-29 10:28 40.12851 29.72814 7683 ft 117 kts 173°
2026-04-29 10:28 40.12018 29.72953 7601 ft 126 kts 178°
2026-04-29 10:28 40.11121 29.73019 7551 ft 127 kts 185°
2026-04-29 10:29 40.10253 29.73030 7466 ft 130 kts 183°
2026-04-29 10:29 40.09361 29.73016 7410 ft 130 kts 182°
2026-04-29 10:29 40.08470 29.73198 7314 ft 131 kts 170°
2026-04-29 10:29 40.07592 29.73465 7340 ft 124 kts 170°
2026-04-29 10:30 40.06775 29.73702 7314 ft 121 kts 172°
2026-04-29 10:30 40.05944 29.73890 7460 ft 120 kts 174°
2026-04-29 10:30 40.05124 29.74063 7506 ft 121 kts 175°
2026-04-29 10:30 40.04270 29.74192 7508 ft 123 kts 178°
2026-04-29 10:31 40.03504 29.74582 7573 ft 119 kts 146°
2026-04-29 10:31 40.02842 29.75237 7626 ft 120 kts 146°
2026-04-29 10:31 40.02136 29.75894 7509 ft 128 kts 149°
2026-04-29 10:31 40.01411 29.76524 7518 ft 126 kts 148°
2026-04-29 10:32 40.00718 29.77136 7501 ft 120 kts 149°
2026-04-29 10:32 40.00019 29.77745 7572 ft 123 kts 148°
2026-04-29 10:32 39.99315 29.78394 7483 ft 125 kts 146°
2026-04-29 10:32 39.98616 29.79064 7363 ft 126 kts 146°
2026-04-29 10:33 39.97931 29.79718 7407 ft 120 kts 147°
2026-04-29 10:33 39.97267 29.80352 7483 ft 120 kts 147°
2026-04-29 10:33 39.96600 29.81001 7476 ft 116 kts 146°
2026-04-29 10:33 39.95970 29.81635 7466 ft 112 kts 144°
2026-04-29 10:34 39.95346 29.82275 7477 ft 118 kts 145°
2026-04-29 10:34 39.94699 29.82917 7478 ft 118 kts 145°
2026-04-29 10:34 39.94030 29.83571 7491 ft 121 kts 145°
2026-04-29 10:34 39.93344 29.84234 7471 ft 126 kts 146°
2026-04-29 10:35 39.92635 29.84907 7473 ft 126 kts 148°
2026-04-29 10:35 39.91902 29.85588 7464 ft 130 kts 147°
2026-04-29 10:35 39.91184 29.86249 7483 ft 126 kts 148°
2026-04-29 10:35 39.90480 29.86880 7468 ft 119 kts 148°
2026-04-29 10:36 39.89830 29.87469 7475 ft 112 kts 148°
2026-04-29 10:36 39.89161 29.88072 7475 ft 121 kts 149°
2026-04-29 10:36 39.88455 29.88696 7457 ft 123 kts 149°
2026-04-29 10:36 39.87781 29.89283 7469 ft 114 kts 150°
2026-04-29 10:37 39.87106 29.89869 7482 ft 116 kts 148°
2026-04-29 10:37 39.86418 29.90471 7482 ft 121 kts 149°
2026-04-29 10:37 39.85679 29.91067 7486 ft 126 kts 157°
2026-04-29 10:37 39.84900 29.91592 7481 ft 128 kts 155°
2026-04-29 10:38 39.84108 29.92132 7483 ft 128 kts 156°
2026-04-29 10:38 39.83326 29.92667 7480 ft 124 kts 155°
2026-04-29 10:38 39.82573 29.93186 7473 ft 123 kts 155°
2026-04-29 10:38 39.81835 29.93704 7470 ft 118 kts 155°
2026-04-29 10:39 39.81119 29.94203 7463 ft 117 kts 156°
2026-04-29 10:39 39.80416 29.94694 7468 ft 114 kts 156°
2026-04-29 10:39 39.79717 29.95182 7466 ft 113 kts 155°
2026-04-29 10:39 39.79027 29.95656 7472 ft 111 kts 156°
2026-04-29 10:40 39.78338 29.96134 7457 ft 112 kts 156°
2026-04-29 10:40 39.77663 29.96602 7475 ft 112 kts 155°
2026-04-29 10:40 39.77092 29.97325 7461 ft 117 kts 130°
2026-04-29 10:40 39.76581 29.98163 7479 ft 120 kts 131°
2026-04-29 10:41 39.76052 29.99037 7484 ft 124 kts 129°
2026-04-29 10:41 39.75509 29.99927 7472 ft 128 kts 133°
2026-04-29 10:41 39.74954 30.00825 7474 ft 129 kts 131°
2026-04-29 10:41 39.74396 30.01736 7475 ft 128 kts 131°
2026-04-29 10:42 39.73856 30.02620 7461 ft 124 kts 132°
2026-04-29 10:42 39.73330 30.03488 7470 ft 121 kts 131°
2026-04-29 10:42 39.72805 30.04353 7461 ft 121 kts 131°
2026-04-29 10:42 39.72276 30.05210 7446 ft 120 kts 131°
2026-04-29 10:43 39.71774 30.06039 7464 ft 118 kts 130°
2026-04-29 10:43 39.71283 30.06853 7462 ft 109 kts 130°
2026-04-29 10:43 39.70824 30.07613 7461 ft 103 kts 131°
2026-04-29 10:43 39.70393 30.08338 7462 ft 104 kts 131°
2026-04-29 10:44 39.69946 30.09089 7465 ft 105 kts 131°
2026-04-29 10:44 39.69493 30.09846 7467 ft 107 kts 130°
2026-04-29 10:44 39.69023 30.10624 7474 ft 113 kts 131°
2026-04-29 10:44 39.68524 30.11434 7479 ft 118 kts 132°
2026-04-29 10:45 39.68008 30.12283 7475 ft 118 kts 131°
2026-04-29 10:45 39.67515 30.13107 7474 ft 115 kts 132°
2026-04-29 10:45 39.67007 30.13930 7470 ft 119 kts 133°
2026-04-29 10:45 39.66499 30.14768 7476 ft 117 kts 132°
2026-04-29 10:46 39.65998 30.15595 7480 ft 118 kts 131°
2026-04-29 10:46 39.65492 30.16430 7475 ft 115 kts 132°
2026-04-29 10:46 39.64990 30.17260 7477 ft 122 kts 132°
2026-04-29 10:46 39.64462 30.18137 7473 ft 124 kts 132°
2026-04-29 10:47 39.63871 30.18926 7471 ft 117 kts 143°
2026-04-29 10:47 39.63273 30.19611 7471 ft 116 kts 142°
2026-04-29 10:47 39.62655 30.20312 7471 ft 119 kts 143°
2026-04-29 10:47 39.62027 30.21032 7475 ft 123 kts 144°
2026-04-29 10:48 39.61375 30.21773 7476 ft 125 kts 143°
2026-04-29 10:48 39.60736 30.22512 7474 ft 122 kts 142°
2026-04-29 10:48 39.60112 30.23219 7472 ft 118 kts 142°
2026-04-29 10:48 39.59483 30.23927 7473 ft 120 kts 143°
2026-04-29 10:49 39.58865 30.24628 7455 ft 118 kts 143°
2026-04-29 10:49 39.58254 30.25332 7471 ft 117 kts 144°
2026-04-29 10:49 39.57648 30.26037 7469 ft 115 kts 144°
2026-04-29 10:49 39.57066 30.26722 7458 ft 114 kts 142°
2026-04-29 10:50 39.56473 30.27422 7464 ft 115 kts 141°
2026-04-29 10:50 39.55867 30.28130 7469 ft 119 kts 143°
2026-04-29 10:50 39.55258 30.28841 7461 ft 113 kts 142°
2026-04-29 10:50 39.54665 30.29475 7481 ft 114 kts 145°
2026-04-29 10:51 39.54027 30.30132 7459 ft 117 kts 146°
2026-04-29 10:51 39.53385 30.30769 7476 ft 116 kts 148°
2026-04-29 10:51 39.52743 30.31405 7477 ft 116 kts 146°
2026-04-29 10:51 39.52107 30.32045 7462 ft 113 kts 147°
2026-04-29 10:52 39.51490 30.32662 7458 ft 112 kts 147°
2026-04-29 10:52 39.50866 30.33291 7438 ft 120 kts 147°
2026-04-29 10:52 39.50227 30.33946 7469 ft 114 kts 147°
2026-04-29 10:52 39.49615 30.34559 7479 ft 118 kts 149°
2026-04-29 10:53 39.48955 30.35245 7467 ft 118 kts 145°
2026-04-29 10:53 39.48326 30.35887 7470 ft 115 kts 148°
2026-04-29 10:53 39.47699 30.36521 7469 ft 112 kts 148°
2026-04-29 10:53 39.47097 30.37111 7436 ft 110 kts 147°
2026-04-29 10:54 39.46517 30.37677 7506 ft 103 kts 145°
2026-04-29 10:54 39.45953 30.38239 7449 ft 97 kts 147°
2026-04-29 10:54 39.45431 30.38774 7486 ft 99 kts 146°
2026-04-29 10:54 39.44883 30.39312 7484 ft 98 kts 147°
2026-04-29 10:55 39.44346 30.39854 7499 ft 97 kts 147°
2026-04-29 10:55 39.43816 30.40392 7482 ft 97 kts 147°
2026-04-29 10:55 39.43250 30.40962 7480 ft 104 kts 146°
2026-04-29 10:55 39.42674 30.41537 7477 ft 110 kts 147°
2026-04-29 10:56 39.42066 30.42139 7520 ft 105 kts 147°
2026-04-29 10:56 39.41428 30.42765 7431 ft 119 kts 147°
2026-04-29 10:56 39.40803 30.43381 7449 ft 105 kts 148°
2026-04-29 10:56 39.40230 30.43939 7466 ft 105 kts 147°
2026-04-29 10:57 39.39617 30.44537 7472 ft 115 kts 147°
2026-04-29 10:57 39.38986 30.45161 7452 ft 107 kts 146°
2026-04-29 10:57 39.38402 30.45739 7483 ft 108 kts 148°
2026-04-29 10:57 39.37758 30.46363 7470 ft 119 kts 147°
2026-04-29 10:58 39.37095 30.46997 7467 ft 120 kts 147°
2026-04-29 10:58 39.36435 30.47632 7467 ft 117 kts 147°
2026-04-29 10:58 39.35778 30.48259 7468 ft 118 kts 146°
2026-04-29 10:58 39.35122 30.48903 7458 ft 118 kts 147°
2026-04-29 10:59 39.34494 30.49517 7439 ft 111 kts 146°
2026-04-29 10:59 39.33886 30.50113 7448 ft 110 kts 147°
2026-04-29 10:59 39.33272 30.50701 7448 ft 107 kts 147°
2026-04-29 10:59 39.32699 30.51266 7453 ft 102 kts 147°
2026-04-29 11:00 39.32129 30.51824 7457 ft 101 kts 147°
2026-04-29 11:00 39.31570 30.52374 7452 ft 98 kts 146°
2026-04-29 11:00 39.31015 30.52926 7437 ft 104 kts 147°
2026-04-29 11:00 39.30425 30.53503 7453 ft 107 kts 147°
2026-04-29 11:01 39.29833 30.54087 7456 ft 105 kts 147°
2026-04-29 11:01 39.29434 30.54863 7454 ft 108 kts 105°
2026-04-29 11:01 39.29357 30.55847 7462 ft 111 kts 96°
2026-04-29 11:01 39.29289 30.56851 7459 ft 111 kts 96°
2026-04-29 11:02 39.29224 30.57849 7465 ft 116 kts 96°
2026-04-29 11:02 39.29154 30.58907 7465 ft 120 kts 95°
2026-04-29 11:02 39.29079 30.59975 7451 ft 121 kts 96°
2026-04-29 11:02 39.29008 30.61034 7460 ft 119 kts 96°
2026-04-29 11:03 39.28928 30.62122 7465 ft 124 kts 97°
2026-04-29 11:03 39.28856 30.63237 7436 ft 123 kts 96°
2026-04-29 11:03 39.28784 30.64298 7456 ft 124 kts 97°
2026-04-29 11:03 39.28706 30.65441 7444 ft 129 kts 96°
2026-04-29 11:04 39.28630 30.66582 7455 ft 127 kts 97°
2026-04-29 11:04 39.28564 30.67698 7447 ft 125 kts 96°
2026-04-29 11:04 39.28485 30.68833 7457 ft 129 kts 98°
2026-04-29 11:04 39.28403 30.69959 7444 ft 122 kts 95°
2026-04-29 11:05 39.28328 30.71022 7462 ft 123 kts 97°
2026-04-29 11:05 39.28251 30.72101 7451 ft 118 kts 95°
2026-04-29 11:05 39.28199 30.72814 7443 ft 121 kts 95°
2026-04-29 11:05 39.28013 30.74214 7449 ft 119 kts 107°
2026-04-29 11:06 39.27871 30.74917 7448 ft 119 kts 106°
2026-04-29 11:06 39.27665 30.75962 7450 ft 120 kts 105°
2026-04-29 11:06 39.27459 30.76985 7447 ft 118 kts 105°
2026-04-29 11:06 39.27254 30.78006 7436 ft 116 kts 105°
2026-04-29 11:07 39.27053 30.78998 7439 ft 111 kts 106°
2026-04-29 11:07 39.26864 30.79953 7441 ft 109 kts 105°
2026-04-29 11:07 39.26679 30.80902 7438 ft 107 kts 106°
2026-04-29 11:07 39.26500 30.81829 7450 ft 107 kts 105°
2026-04-29 11:08 39.26315 30.82764 7452 ft 109 kts 105°
2026-04-29 11:08 39.26124 30.83719 7447 ft 109 kts 106°
2026-04-29 11:08 39.25939 30.84677 7449 ft 111 kts 100°
2026-04-29 11:08 39.25862 30.85659 7448 ft 110 kts 96°
2026-04-29 11:09 39.25793 30.86655 7446 ft 111 kts 96°
2026-04-29 11:09 39.25723 30.87634 7448 ft 111 kts 96°
2026-04-29 11:09 39.25655 30.88624 7449 ft 112 kts 96°
2026-04-29 11:09 39.25585 30.89617 7447 ft 111 kts 96°
2026-04-29 11:10 39.25518 30.90606 7445 ft 111 kts 96°
2026-04-29 11:10 39.25453 30.91642 7454 ft 120 kts 96°
2026-04-29 11:10 39.25380 30.92748 7454 ft 125 kts 95°
2026-04-29 11:10 39.25303 30.93882 7455 ft 127 kts 96°
2026-04-29 11:11 39.25225 30.95008 7467 ft 128 kts 96°
2026-04-29 11:11 39.25143 30.96186 7456 ft 132 kts 96°
2026-04-29 11:11 39.25058 30.97394 7445 ft 133 kts 96°
2026-04-29 11:11 39.24973 30.98569 7446 ft 132 kts 96°
2026-04-29 11:12 39.24890 30.99729 7449 ft 132 kts 96°
2026-04-29 11:12 39.24807 31.00913 7454 ft 133 kts 96°
2026-04-29 11:12 39.24720 31.02116 7448 ft 132 kts 96°
2026-04-29 11:12 39.24635 31.03303 7449 ft 133 kts 95°
2026-04-29 11:13 39.24550 31.04491 7446 ft 132 kts 96°
2026-04-29 11:13 39.24465 31.05665 7444 ft 131 kts 96°
2026-04-29 11:13 39.24383 31.06843 7445 ft 133 kts 96°
2026-04-29 11:13 39.24303 31.08015 7446 ft 133 kts 96°
2026-04-29 11:14 39.24226 31.09175 7443 ft 132 kts 96°
2026-04-29 11:14 39.24148 31.10359 7443 ft 131 kts 95°
2026-04-29 11:14 39.24070 31.11535 7440 ft 131 kts 96°
2026-04-29 11:14 39.23994 31.12709 7442 ft 131 kts 96°
2026-04-29 11:15 39.23918 31.13870 7437 ft 129 kts 96°
2026-04-29 11:15 39.23844 31.15003 7435 ft 125 kts 96°
2026-04-29 11:15 39.23769 31.16128 7439 ft 128 kts 96°
2026-04-29 11:15 39.23690 31.17296 7380 ft 131 kts 96°
2026-04-29 11:16 39.23611 31.18422 7251 ft 123 kts 96°
2026-04-29 11:16 39.23534 31.19497 7118 ft 119 kts 96°
2026-04-29 11:16 39.23461 31.20544 6981 ft 114 kts 95°
2026-04-29 11:16 39.23390 31.21574 6850 ft 117 kts 96°
2026-04-29 11:17 39.23322 31.22597 6723 ft 113 kts 96°
2026-04-29 11:17 39.23254 31.23595 6611 ft 112 kts 96°
2026-04-29 11:17 39.23183 31.24604 6490 ft 115 kts 98°
2026-04-29 11:17 39.23065 31.25638 6380 ft 118 kts 105°
2026-04-29 11:18 39.22872 31.26674 6256 ft 118 kts 105°
2026-04-29 11:18 39.22680 31.27691 6122 ft 115 kts 105°
2026-04-29 11:18 39.22486 31.28700 6004 ft 116 kts 105°
2026-04-29 11:18 39.22284 31.29712 5897 ft 120 kts 105°
2026-04-29 11:19 39.22079 31.30745 5782 ft 120 kts 109°
2026-04-29 11:19 39.21882 31.31785 5654 ft 119 kts 104°
2026-04-29 11:19 39.21675 31.32813 5529 ft 117 kts 105°
2026-04-29 11:19 39.21468 31.33831 5388 ft 122 kts 105°
2026-04-29 11:20 39.21241 31.34939 5142 ft 130 kts 105°
2026-04-29 11:20 39.21002 31.36055 4911 ft 127 kts 105°
2026-04-29 11:20 39.20763 31.37138 4673 ft 126 kts 105°
2026-04-29 11:20 39.20520 31.38229 4419 ft 127 kts 105°
2026-04-29 11:21 39.20279 31.39317 4174 ft 126 kts 104°
2026-04-29 11:21 39.20100 31.40409 3949 ft 122 kts 96°
2026-04-29 11:21 39.20011 31.41433 3919 ft 108 kts 88°
2026-04-29 11:21 39.20312 31.42166 3916 ft 86 kts 30°
2026-04-29 11:22 39.20810 31.42516 3910 ft 76 kts 13°
2026-04-29 11:22 39.21350 31.42834 3935 ft 93 kts 36°
2026-04-29 11:22 39.21842 31.43438 4030 ft 101 kts 41°
2026-04-29 11:22 39.22420 31.44107 4036 ft 109 kts 40°
2026-04-29 11:23 39.22994 31.44713 4150 ft 107 kts 29°
2026-04-29 11:23 39.23574 31.45245 4270 ft 105 kts 43°
2026-04-29 11:23 39.24101 31.45954 4273 ft 116 kts 37°
2026-04-29 11:23 39.24816 31.46402 4297 ft 113 kts
2026-04-29 11:24 39.25594 31.46348 4229 ft 112 kts 352°
2026-04-29 11:24 39.26338 31.46131 4152 ft 109 kts 342°
2026-04-29 11:24 39.27096 31.45958 4032 ft 108 kts 352°
2026-04-29 11:24 39.27843 31.45834 3941 ft 106 kts 355°
2026-04-29 11:25 39.28401 31.46438 3550 ft 124 kts 69°
2026-04-29 11:25 39.28698 31.47297 3443 ft 93 kts 52°
2026-04-29 11:25 39.29083 31.47903 3233 ft 86 kts 49°
2026-04-29 11:25 39.29453 31.48559 2962 ft 91 kts 51°
2026-04-29 11:26 39.30130 31.49634 2828 ft 51 kts 48°
2026-04-29 11:26 39.30288 31.49878 2829 ft 28 kts 56°
2026-04-29 11:26 39.30393 31.50056 2826 ft 23 kts 52°
2026-04-29 11:27 39.30491 31.50165 2830 ft 9 kts 343°
2026-04-29 11:27 39.30487 31.50125 2829 ft 14 kts 227°
2026-04-29 11:27 39.30371 31.49940 2829 ft 28 kts 232°
2026-04-29 11:27 39.30261 31.49765 2828 ft 22 kts 229°
2026-04-29 11:28 39.30174 31.49625 2825 ft 18 kts 232°
2026-04-29 11:28 39.30103 31.49513 2823 ft 14 kts 231°
2026-04-29 11:28 39.30052 31.49431 2826 ft 10 kts 232°
2026-04-29 11:28 39.30000 31.49345 2826 ft 26 kts 231°
2026-04-29 11:29 39.29868 31.49130 2825 ft 27 kts 231°
2026-04-29 11:29 39.29766 31.48966 2825 ft 21 kts 228°
2026-04-29 11:29 39.29684 31.48841 2825 ft 11 kts 239°
2026-04-29 11:29 39.29672 31.48806 2823 ft 0 kts 197°
2026-04-29 11:32 39.29667 31.48807 2793 ft 6 kts 167°
2026-04-29 11:32 39.29709 31.48879 2797 ft 18 kts 52°
2026-04-29 11:32 39.29805 31.49039 2797 ft 15 kts 69°
2026-04-29 11:33 39.29802 31.49113 2797 ft 8 kts 50°
2026-04-29 11:33 39.29927 31.49310 2791 ft 49 kts 52°
2026-04-29 11:33 39.30214 31.49762 2825 ft 76 kts 51°
2026-04-29 11:33 39.30561 31.50315 2942 ft 83 kts 52°
2026-04-29 11:34 39.30935 31.50919 3055 ft 90 kts 52°
2026-04-29 11:34 39.31313 31.51578 3234 ft 90 kts 54°
2026-04-29 11:34 39.31664 31.52223 3431 ft 85 kts 36°
2026-04-29 11:34 39.32222 31.52157 3531 ft 90 kts 328°
2026-04-29 11:35 39.32763 31.51674 3647 ft 94 kts 323°
2026-04-29 11:35 39.33283 31.51150 3789 ft 97 kts 323°
2026-04-29 11:35 39.33833 31.50635 3899 ft 97 kts 324°
2026-04-29 11:35 39.34339 31.50074 3946 ft 96 kts 295°
2026-04-29 11:36 39.34176 31.49260 3923 ft 100 kts 235°
2026-04-29 11:36 39.33738 31.48546 3938 ft 104 kts 231°
2026-04-29 11:36 39.33254 31.47842 3954 ft 106 kts 228°
2026-04-29 11:36 39.32750 31.47127 3945 ft 111 kts 228°
2026-04-29 11:37 39.32224 31.46404 3902 ft 112 kts 227°
2026-04-29 11:37 39.31710 31.45670 3899 ft 110 kts 231°
2026-04-29 11:37 39.31247 31.44944 3886 ft 102 kts 232°
2026-04-29 11:37 39.30775 31.44253 3747 ft 104 kts 215°
2026-04-29 11:38 39.30059 31.44110 3583 ft 109 kts 163°
2026-04-29 11:38 39.29467 31.44625 3527 ft 98 kts 143°
2026-04-29 11:38 39.28948 31.45156 3501 ft 90 kts 142°
2026-04-29 11:38 39.28467 31.45675 3411 ft 91 kts 140°
2026-04-29 11:39 39.28328 31.46404 3302 ft 93 kts 72°
2026-04-29 11:39 39.28604 31.47166 3175 ft 92 kts 58°
2026-04-29 11:39 39.28996 31.47812 3056 ft 93 kts 51°
2026-04-29 11:39 39.29393 31.48446 2953 ft 86 kts 52°
2026-04-29 11:40 39.29748 31.49020 2815 ft 76 kts 51°
2026-04-29 11:40 39.30025 31.49466 2792 ft 49 kts 52°
2026-04-29 11:40 39.30306 31.49915 2815 ft 77 kts 51°
2026-04-29 11:40 39.30522 31.50556 2938 ft 81 kts 106°
2026-04-29 11:41 39.30167 31.51169 3036 ft 89 kts 133°
2026-04-29 11:41 39.29926 31.51587 3163 ft 86 kts 123°
2026-04-29 11:41 39.29657 31.52252 3343 ft 84 kts 115°
2026-04-29 11:41 39.29249 31.52597 3477 ft 80 kts 226°
2026-04-29 11:42 39.29185 31.51865 3564 ft 84 kts 266°
2026-04-29 11:42 39.29205 31.51055 3656 ft 93 kts 277°
2026-04-29 11:42 39.29479 31.50285 3763 ft 99 kts 305°
2026-04-29 11:42 39.29953 31.49606 3869 ft 103 kts 313°
2026-04-29 11:43 39.30425 31.48858 3932 ft 107 kts 308°
2026-04-29 11:43 39.30963 31.48192 3943 ft 113 kts 319°
2026-04-29 11:43 39.31577 31.47591 3952 ft 108 kts 324°
2026-04-29 11:43 39.32272 31.47225 3846 ft 112 kts
2026-04-29 11:44 39.32878 31.47799 3824 ft 112 kts 67°
2026-04-29 11:44 39.33221 31.48634 3850 ft 106 kts 52°
2026-04-29 11:44 39.33651 31.49424 3746 ft 109 kts 54°
2026-04-29 11:44 39.34104 31.50229 3588 ft 109 kts 55°
2026-04-29 11:45 39.34094 31.51104 3522 ft 102 kts 129°
2026-04-29 11:45 39.33508 31.51556 3433 ft 96 kts 150°
2026-04-29 11:45 39.32975 31.52067 3332 ft 97 kts 144°
2026-04-29 11:45 39.32420 31.52522 3258 ft 92 kts 175°
2026-04-29 11:46 39.31839 31.52166 3084 ft 99 kts 217°
2026-04-29 11:46 39.31377 31.51609 2942 ft 87 kts 228°
2026-04-29 11:46 39.31029 31.51078 2854 ft 71 kts 233°
2026-04-29 11:46 39.30726 31.50596 2800 ft 65 kts 233°
2026-04-29 11:47 39.30488 31.50211 2797 ft 46 kts 230°
2026-04-29 11:47 39.30314 31.49931 2794 ft 35 kts 230°
2026-04-29 11:47 39.30177 31.49709 2798 ft 28 kts 230°
2026-04-29 11:47 39.30071 31.49519 2796 ft 24 kts 239°
2026-04-29 11:48 39.29966 31.49367 2791 ft 28 kts 227°
2026-04-29 11:48 39.29824 31.49135 2797 ft 30 kts 236°
2026-04-29 11:48 39.29792 31.49004 2797 ft 5 kts 225°
2026-04-29 11:48 39.29697 31.48857 2797 ft 27 kts 231°
2026-04-29 11:49 39.29682 31.48794 2797 ft 0 kts 286°